Location: Unspecified
(0.0000°N, 0.0000°E)
Time: 06:42:08
(UTC+00:00)

Vanguard 2 Rocket - Pass Details

Date: 13 December 2017
Orbit: 553 x 3328 km, 32.9° (Epoch: 22 June)

Event Time Altitude Azimuth Distance (km) Brightness Sun altitude
Rises 02:17:01 0° 312° (NW) 7,309 - -48.3°
Reaches altitude 10° 02:22:16 10° 316° (NW) 6,248 - -47.2°
Exits shadow 02:40:11 58° 17° (NNE) 3,020 9.2 -43.5°
Maximum altitude 02:41:20 59° 32° (NNE) 2,935 9.2 -43.3°
Drops below altitude 10° 02:53:35 10° 108° (ESE) 4,229 10.9 -40.7°
Sets 02:56:22 0° 112° (ESE) 4,913 11.5 -40.1°
